This is the latest recevied weather packets stored in our database for station/object SQ9CIE-4. If no packets are shown the sender has not sent any weather packets the latest 1 day(s).
| Time | Temp. | Humidity | Pressure | Rain* | Wind** | Luminosity | Snow |
|---|---|---|---|---|---|---|---|
| 1836274569 | 13.89° C | 98% | 1024.6 hPa | 0 mm | 0 m/s | 0 W/m² | - |
| 1836274419 | 14.44° C | 98% | 1024.6 hPa | 0 mm | 0 m/s | 0 W/m² | - |
| 1836274269 | 13.89° C | 98% | 1024.6 hPa | 0 mm | 0 m/s | 0 W/m² | - |
| 1836274119 | 14.44° C | 98% | 1024.6 hPa | 0 mm | 0 m/s | 0 W/m² | - |
| 1836273969 | 13.89° C | 98% | 1024.6 hPa | 0 mm | 0 m/s | 0 W/m² | - |
| 1778010358 | 17.78° C | 38% | 1006.3 hPa | 0 mm | 0.89 m/s, 176° | 0 W/m² | - |
| 1778010058 | 17.78° C | 37% | 1006.3 hPa | 0 mm | 0 m/s | 0 W/m² | - |
| 1778009758 | 18.89° C | 36% | 1006.3 hPa | 0 mm | 0 m/s | 0 W/m² | - |
| 1778009458 | 18.89° C | 36% | 1006.2 hPa | 0 mm | 0.45 m/s, 176° | 0 W/m² | - |
| 1778009158 | 18.89° C | 36% | 1006.4 hPa | 0 mm | 1.34 m/s, 133° | 0 W/m² | - |
| 1778008858 | 18.89° C | 35% | 1006.5 hPa | 0 mm | 0.45 m/s, 133° | 0 W/m² | - |
| 1778008558 | 18.89° C | 35% | 1006.2 hPa | 0 mm | 0.89 m/s, 132° | 0 W/m² | - |
| 1778008258 | 18.89° C | 34% | 1006.2 hPa | 0 mm | 0.45 m/s, 133° | 0 W/m² | - |
| 1778007958 | 18.89° C | 33% | 1006.2 hPa | 0 mm | 1.34 m/s, 133° | 0 W/m² | - |
| 1778007658 | 20° C | 33% | 1006.1 hPa | 0 mm | 0.89 m/s, 149° | 0 W/m² | - |
| 1778007358 | 20° C | 32% | 1006 hPa | 0 mm | 0.89 m/s, 149° | 0 W/m² | - |
| 1778007058 | 20° C | 31% | 1005.9 hPa | 0 mm | 0.45 m/s, 149° | 0 W/m² | - |
| 1778006758 | 20° C | 31% | 1005.9 hPa | 0 mm | 0.89 m/s, 184° | 0 W/m² | - |
| 1778006458 | 20° C | 30% | 1005.9 hPa | 0 mm | 0.89 m/s, 166° | 0 W/m² | - |
| 1778006158 | 21.11° C | 30% | 1005.9 hPa | 0 mm | 0.89 m/s, 212° | 0 W/m² | - |
| 1778005858 | 21.11° C | 29% | 1005.8 hPa | 0 mm | 1.79 m/s, 213° | 0 W/m² | - |
| 1778005558 | 21.11° C | 29% | 1005.8 hPa | 0 mm | 2.24 m/s, 212° | 1 W/m² | - |
| 1778005258 | 21.11° C | 29% | 1005.7 hPa | 0 mm | 0.89 m/s, 214° | 1 W/m² | - |
| 1778004958 | 21.11° C | 29% | 1005.7 hPa | 0 mm | 0.89 m/s, 214° | 2 W/m² | - |
| 1778004658 | 22.22° C | 28% | 1005.6 hPa | 0 mm | 2.24 m/s, 214° | 3 W/m² | - |
* Rain latest hour (hover to see other rain measurements)
** Current wind speed in m/s (hover to see current wind gust speed)